"Pseudo-MPEC" for ZTF0DoU

Created 2020 Aug 4 23:07:16 UT using Find_Orb

Click here for an explanation of pseudo-MPECs

 
 Astrometry: 
     ZTF0DoU  C2020 07 30.42209523 31 56.30 +15 00 26.4    ~7ULM 17.52RUNEOCPI41
     ZTF0DoU  C2020 07 30.42244223 31 57.82 +15 01 36.9    ~7ULM 17.52RUNEOCPI41
     ZTF0DoU  C2020 07 30.43012723 32 31.22 +15 27 34.2    ~7ULM 18.06RUNEOCPI41
     ZTF0DoU  C2020 07 30.43047523 32 32.74 +15 28 45.8    ~7ULM 18.06RUNEOCPI41

Station data:
(I41) Palomar Mountain--ZTF  (N33.357340 W116.859780)  US/California. 1.2-m
   f/2.44 Oschin Schmidt + CCD.

Orbital elements:  ZTF0DoU
   Perigee 2020 Jul 29.892352 +/- 22.4 TT = 21:24:59 (JD 2459060.392352)
Epoch 2020 Jul 30.0 TT = JDT 2459060.5                        AutoNEOCP
q126924.234 +/- 5e+7                (J2000 equator)
H   30.7  G 0.15                    Peri.  319.74146 +/- 70
                                    Node   345.14233 +/- 80
e   3.6974880 +/- 0.23              Incl.   64.68070 +/- 34
From 4 observations 2020 July 30 (12.1 min); mean residual 0".47
Residuals in arcseconds: 
200730 I41  .02+  .29+    200730 I41  .15-  .90-    
200730 I41  .01-  .27-    200730 I41  .14+  .87+    

Ephemerides (geocentric):
Date (UTC) HH   RA              Dec         delta   r     elong  mag " sig PA
---- -- -- --  -------------   -----------  ------ ------ -----  --- ---- ---
2020 08 04 23  01 25 29.317   +51 15 18.89  .01086 1.0146  90.8 24.0  35d  41
2020 08 05 00  01 25 39.546   +51 16 59.53  .01093 1.0146  90.8 24.0  35d  41
2020 08 05 01  01 25 49.658   +51 18 38.83  .01100 1.0146  90.8 24.0  35d  41
2020 08 05 02  01 25 59.655   +51 20 16.83  .01107 1.0146  90.8 24.1  35d  41
2020 08 05 03  01 26 09.540   +51 21 53.55  .01114 1.0146  90.8 24.1  34d  41
2020 08 05 04  01 26 19.313   +51 23 29.03  .01121 1.0146  90.8 24.1  34d  41
2020 08 05 05  01 26 28.977   +51 25 03.28  .01128 1.0146  90.8 24.1  34d  41
2020 08 05 06  01 26 38.534   +51 26 36.33  .01136 1.0146  90.8 24.1  34d  41
2020 08 05 07  01 26 47.985   +51 28 08.20  .01143 1.0146  90.8 24.1  34d  41
2020 08 05 08  01 26 57.333   +51 29 38.92  .01150 1.0146  90.8 24.1  34d  41
2020 08 05 09  01 27 06.579   +51 31 08.50  .01157 1.0146  90.8 24.2  34d  41
2020 08 05 10  01 27 15.725   +51 32 36.98  .01164 1.0146  90.8 24.2  34d  41
2020 08 05 11  01 27 24.772   +51 34 04.37  .01171 1.0146  90.7 24.2  34d  41
2020 08 05 12  01 27 33.722   +51 35 30.68  .01178 1.0146  90.7 24.2  34d  41
2020 08 05 13  01 27 42.577   +51 36 55.95  .01185 1.0146  90.7 24.2  34d  41
2020 08 05 14  01 27 51.338   +51 38 20.20  .01193 1.0146  90.7 24.2  34d  41
2020 08 05 15  01 28 00.007   +51 39 43.43  .01200 1.0146  90.7 24.2  34d  41
2020 08 05 16  01 28 08.585   +51 41 05.67  .01207 1.0145  90.7 24.2  34d  41
2020 08 05 17  01 28 17.074   +51 42 26.94  .01214 1.0145  90.8 24.3  34d  41
2020 08 05 18  01 28 25.474   +51 43 47.26  .01221 1.0145  90.8 24.3  34d  41
2020 08 05 19  01 28 33.789   +51 45 06.64  .01228 1.0145  90.8 24.3  34d  41
2020 08 05 20  01 28 42.018   +51 46 25.10  .01235 1.0145  90.8 24.3  34d  41
2020 08 05 21  01 28 50.163   +51 47 42.65  .01242 1.0145  90.8 24.3  34d  42
2020 08 05 22  01 28 58.225   +51 48 59.32  .01249 1.0145  90.8 24.3  34d  42
2020 08 05 23  01 29 06.207   +51 50 15.12  .01256 1.0145  90.8 24.3  34d  42
2020 08 06 00  01 29 14.108   +51 51 30.06  .01264 1.0145  90.8 24.3  34d  42
2020 08 06 01  01 29 21.930   +51 52 44.16  .01271 1.0145  90.8 24.4  34d  42
2020 08 06 02  01 29 29.675   +51 53 57.43  .01278 1.0145  90.8 24.4  34d  42
2020 08 06 03  01 29 37.343   +51 55 09.89  .01285 1.0145  90.8 24.4  34d  42
2020 08 06 04  01 29 44.936   +51 56 21.55  .01292 1.0145  90.8 24.4  34d  42
2020 08 06 05  01 29 52.455   +51 57 32.43  .01299 1.0145  90.8 24.4  34d  42
2020 08 06 06  01 29 59.901   +51 58 42.54  .01306 1.0145  90.8 24.4  34d  42
2020 08 06 07  01 30 07.274   +51 59 51.89  .01313 1.0145  90.8 24.4  34d  42
2020 08 06 08  01 30 14.577   +52 01 00.50  .01320 1.0145  90.8 24.4  34d  42
2020 08 06 09  01 30 21.810   +52 02 08.37  .01327 1.0145  90.8 24.4  34d  42
2020 08 06 10  01 30 28.973   +52 03 15.52  .01334 1.0145  90.8 24.5  34d  42
2020 08 06 11  01 30 36.069   +52 04 21.97  .01342 1.0145  90.8 24.5  34d  42
2020 08 06 12  01 30 43.098   +52 05 27.71  .01349 1.0145  90.8 24.5  34d  42
2020 08 06 13  01 30 50.060   +52 06 32.78  .01356 1.0145  90.8 24.5  34d  42
2020 08 06 14  01 30 56.958   +52 07 37.16  .01363 1.0145  90.8 24.5  34d  42
2020 08 06 15  01 31 03.791   +52 08 40.89  .01370 1.0145  90.8 24.5  34d  42
2020 08 06 16  01 31 10.561   +52 09 43.96  .01377 1.0145  90.9 24.5  34d  42
2020 08 06 17  01 31 17.269   +52 10 46.39  .01384 1.0145  90.9 24.5  34d  42
2020 08 06 18  01 31 23.915   +52 11 48.19  .01391 1.0145  90.9 24.5  34d  42
2020 08 06 19  01 31 30.500   +52 12 49.37  .01398 1.0145  90.9 24.6  34d  42
2020 08 06 20  01 31 37.025   +52 13 49.93  .01405 1.0145  90.9 24.6  34d  42
2020 08 06 21  01 31 43.492   +52 14 49.90  .01412 1.0145  90.9 24.6  34d  42
2020 08 06 22  01 31 49.900   +52 15 49.27  .01419 1.0145  90.9 24.6  34d  42